Hourly Data Report for June 24, 2018

TORONTO CITY
ONTARIO
Current Station Operator: ECCC - MSC

43°40'00.000" N
79°24'00.000" W
112.50 m
6158355
71508
XTO

Download Data

Hourly Data (June 2018)
Hourly Data Report for June 24, 2018
TIME
LST
Temp Definition
°C
Dew Point Definition
°C
Rel Hum Definition
%
Precip. Amount Definition
mm

Wind Dir Definition
10's deg

Wind Spd Definition
km/h
Visibility Definition
km
Stn Press Definition
kPa
Hmdx Definition


Wind Chill Definition


Weather Definition


00:00 17.6 14.4 81 0.0 LegendMM LegendMM   99.49     LegendNANA
01:00 17.8 14.7 82 0.0 LegendMM LegendMM   99.49     LegendNANA
02:00 17.8 14.9 83 0.0 LegendMM LegendMM   99.47     LegendNANA
03:00 17.9 15.0 83 0.0 LegendMM LegendMM   99.48     LegendNANA
04:00 17.8 15.2 85 0.0 LegendMM LegendMM   99.50     LegendNANA
05:00 17.9 15.4 86 0.0 LegendMM LegendMM   99.54     LegendNANA
06:00 18.0 15.5 85 0.0 LegendMM LegendMM   99.58     LegendNANA
07:00 18.0 15.3 84 0.0 LegendMM LegendMM   99.61     LegendNANA
08:00 17.7 15.7 88 1.2 LegendMM LegendMM   99.63     LegendNANA
09:00 17.5 15.7 89 3.6 LegendMM LegendMM   99.68     LegendNANA
10:00 16.9 15.3 90 6.5 LegendMM LegendMM   99.72     LegendNANA
11:00 17.5 15.9 91 5.8 LegendMM LegendMM   99.73     LegendNANA
12:00 18.1 16.0 88 0.2 LegendMM LegendMM   99.80     LegendNANA
13:00 17.8 15.8 88 0.0 LegendMM LegendMM   99.79     LegendNANA
14:00 18.9 16.0 83 0.2 LegendMM LegendMM   99.83     LegendNANA
15:00 19.4 16.2 82 0.3 LegendMM LegendMM   99.90     LegendNANA
16:00 20.2 15.3 74 0.0 LegendMM LegendMM   99.93     LegendNANA
17:00 20.6 16.0 75 0.0 LegendMM LegendMM   100.01 25   LegendNANA
18:00 20.9 15.3 70 0.0 LegendMM LegendMM   100.03 25   LegendNANA
19:00 21.0 15.2 69 0.0 LegendMM LegendMM   100.05 25   LegendNANA
20:00 20.6 14.3 67 0.0 LegendMM LegendMM   100.08     LegendNANA
21:00 19.2 13.0 67 0.0 LegendMM LegendMM   100.23     LegendNANA
22:00 18.0 12.8 71 0.0 LegendMM LegendMM   100.26     LegendNANA
23:00 17.0 12.5 75 0.0 LegendMM LegendMM   100.36     LegendNANA

Notes on Data Quality.

Legend

  • E = Estimated
  • M = Missing
  • NA = Not Available*
  • [empty] = Indicates an unobserved value
Date modified: